This is the latest recevied weather packets stored in our database for station/object XE1GMR. If no packets are shown the sender has not sent any weather packets the latest 1 day(s).
| Time | Temp. | Humidity | Pressure | Rain* | Wind** | Luminosity | Snow |
|---|---|---|---|---|---|---|---|
| 1778016971 | 30.56° C | 34% | 1119.7 hPa | 0 mm | 2.24 m/s, 206° | 491 W/m² | - |
| 1778016667 | 30.56° C | 34% | 1119.7 hPa | 0 mm | 2.24 m/s, 247° | 518 W/m² | - |
| 1778016363 | 30° C | 34% | 1119.8 hPa | 0 mm | 0.45 m/s, 273° | 507 W/m² | - |
| 1778016066 | 30.56° C | 34% | 1119.7 hPa | 0 mm | 2.68 m/s, 229° | 517 W/m² | - |
| 1778015753 | 30.56° C | 34% | 1119.8 hPa | 0 mm | 1.79 m/s, 191° | 517 W/m² | - |
| 1778015450 | 30.56° C | 34% | 1119.8 hPa | 0 mm | 0.45 m/s, 235° | 547 W/m² | - |
| 1778015146 | 31.11° C | 34% | 1119.8 hPa | 0 mm | 1.34 m/s, 184° | 576 W/m² | - |
| 1778014844 | 30° C | 36% | 1119.9 hPa | 0 mm | 0.89 m/s, 123° | 596 W/m² | - |
| 1778014541 | 30° C | 36% | 1120 hPa | 0 mm | 1.79 m/s, 245° | 202 W/m² | - |
| 1778014238 | 30° C | 36% | 1120.2 hPa | 0 mm | 0.89 m/s, 253° | 631 W/m² | - |
| 1778013935 | 29.44° C | 38% | 1120.3 hPa | 0 mm | 0.45 m/s, 236° | 615 W/m² | - |
| 1778013632 | 30.56° C | 37% | 1120.1 hPa | 0 mm | 1.34 m/s, 253° | 613 W/m² | - |
| 1778013329 | 30.56° C | 36% | 1120.2 hPa | 0 mm | 1.34 m/s, 236° | 661 W/m² | - |
| 1778013027 | 30° C | 37% | 1120.4 hPa | 0 mm | 1.79 m/s, 220° | 655 W/m² | - |
| 1778012722 | 30° C | 37% | 1120.4 hPa | 0 mm | 0.89 m/s, 230° | 661 W/m² | - |
| 1778012419 | 29.44° C | 38% | 1120.7 hPa | 0 mm | 2.24 m/s, 337° | 678 W/m² | - |
| 1778012116 | 30° C | 39% | 1120.7 hPa | 0 mm | 2.68 m/s, 249° | 672 W/m² | - |
| 1778011813 | 28.89° C | 39% | 1120.9 hPa | 0 mm | 0.89 m/s, 257° | 695 W/m² | - |
| 1778011511 | 29.44° C | 39% | 1120.8 hPa | 0 mm | 1.34 m/s, 292° | 697 W/m² | - |
| 1778011207 | 28.89° C | 39% | 1120.9 hPa | 0 mm | 1.79 m/s, 238° | 707 W/m² | - |
| 1778010903 | 29.44° C | 39% | 1120.9 hPa | 0 mm | 0.89 m/s, 253° | 714 W/m² | - |
| 1778010600 | 29.44° C | 39% | 1121.2 hPa | 0 mm | 0.89 m/s, 232° | 710 W/m² | - |
| 1778010298 | 29.44° C | 39% | 1121 hPa | 0 mm | 2.24 m/s, 231° | 688 W/m² | - |
| 1778010001 | 28.89° C | 41% | 1121.1 hPa | 0 mm | 0.89 m/s, 279° | 675 W/m² | - |
| 1778009695 | 29.44° C | 40% | 1121.5 hPa | 0 mm | 0.89 m/s, 220° | 699 W/m² | - |
* Rain latest hour (hover to see other rain measurements)
** Current wind speed in m/s (hover to see current wind gust speed)